Home   Weather   Bourges   Past weeks

Flag for France Past Weather in Bourges, Centre-Val de Loire, France — Yesterday and Last 2 Weeks

Now
31 °F

Chilly.


Feels Like: 26 °F
Forecast: 21 / 40 °F
Wind: 5 mph from Northeast

Location: Bourges

Current Time: Jan 20, 2017 at 7:40:14 pm

Latest Report: Jan 20, 2017 at 7:00 pm


Visibility: 4 mi

Pressure: 30.38 "Hg

Humidity: 73%

Dew Point: 23 °F

Location of BourgesLocation

Past Weather in Bourges — Graph

°F

Bourges Temperature Yesterday

Maximum temperature yesterday: 33 °F (at 4:00 pm)
Minimum temperature yesterday: 21 °F (at 8:00 am)
Average temperature yesterday: 26 °F

High & Low Weather Summary for the Past Weeks

 TemperatureHumidityPressure
High48 °F (Jan 11, 7:00 pm)98% (Jan 9, 11:00 am)30.70 "Hg (Jan 9, 11:00 am)
Low18 °F (Jan 7, 8:00 am)48% (Jan 7, 4:00 pm)29.59 "Hg (Jan 12, 8:00 pm)
Average34 °F83%30.31 "Hg
* Reported Jan 5 6:00 pm — Jan 20 6:00 pm, Bourges, Weather by CustomWeather, © 2017

Note: Actual official high and low records may vary slightly from our data, if they occured in-between our weather recording intervals... More about our weather records

Advertising

Bourges Weather History for the Previous 24 Hours

Scroll right to see more
 ConditionsComfort  
Time TempWeatherWind HumidityBarometerVisibility
6:00 pm
Fri, Jan 20
32 °FChilly.3 mph71%30.38 "Hg4 mi
5:00 pm35 °FSunny.5 mph64%30.37 "Hg6 mi
4:00 pm36 °FSunny.6 mph61%30.37 "Hg6 mi
3:00 pm35 °FSunny.6 mph63%30.38 "Hg5 mi
2:00 pm33 °FSunny.7 mph65%30.39 "Hg5 mi
1:00 pm31 °FSunny.7 mph69%30.39 "Hg5 mi
12:00 pm28 °FSunny.8 mph74%30.41 "Hg4 mi
11:00 am26 °FSunny.9 mph76%30.42 "Hg4 mi
10:00 am23 °FSunny.9 mph80%30.42 "Hg4 mi
9:00 am19 °FSunny.8 mph85%30.42 "Hg3 mi
8:00 am19 °FClear.7 mph85%30.42 "Hg3 mi
7:00 am20 °FClear.7 mph85%30.41 "Hg4 mi
6:00 am19 °FClear.8 mph83%30.42 "Hg5 mi
5:00 am20 °FCold.7 mph84%30.42 "Hg3 mi
4:00 am21 °FCold.6 mph83%30.43 "Hg3 mi
3:00 am22 °FCold.7 mph82%30.43 "Hg3 mi
2:00 am21 °FCold.7 mph83%30.44 "Hg3 mi
1:00 am22 °FCold.7 mph82%30.45 "Hg3 mi
12:00 am24 °FCold.7 mph78%30.46 "Hg4 mi
11:00 pm
Thu, Jan 19
24 °FCold.6 mph78%30.47 "Hg4 mi
10:00 pm26 °FChilly.7 mph76%30.47 "Hg4 mi
9:00 pm27 °FChilly.7 mph75%30.47 "Hg5 mi
8:00 pm28 °FChilly.7 mph72%30.46 "Hg6 mi
7:00 pm29 °FChilly.6 mph70%30.46 "Hg6 mi
Weather by CustomWeather, © 2017

See weather overviewHow to use our weather pages